Simultaneous Nadir Overpasses (SNOs) Predictions

Prediction of SNOs between AURA and NPP Satellite Orbit:

Table of predicted SNOs for the next 14.0 days since TLE Epoch: 7/12/2015
Index Date (AURA) Time (AURA) Lat,Lon (AURA) SZA (AURA ) Date (NPP) Time (NPP) Lat,Lon (NPP) SZA (NPP ) Distance(km) Time Diff (sec)
1 07/14/2015 16:41:03 -78.43, 0.29 107.12 07/14/2015 16:40:18 -78.43, 0.25 107.08 1.01 45
2 07/14/2015 17:30:18 78.88, 170.36 72.27 07/14/2015 17:30:50 78.88, 170.35 72.25 0.17 32
3 07/17/2015 08:57:26 -78.52, 116.63 106.81 07/17/2015 08:57:08 -78.51, 116.51 106.77 2.93 18
4 07/17/2015 09:46:41 78.97, -73.28 72.59 07/17/2015 09:47:40 78.96, -73.36 72.57 1.85 59
5 07/20/2015 00:24:28 78.36, 64.05 73.88 07/20/2015 00:23:19 78.36, 64.09 73.93 0.98 69
6 07/20/2015 01:13:47 -78.71,-126.46 106.59 07/20/2015 01:13:56 -78.71,-126.55 106.58 1.99 9
7 07/22/2015 16:40:51 78.44,-179.63 74.28 07/22/2015 16:40:10 78.44,-179.70 74.33 1.44 41
8 07/22/2015 17:30:06 -78.96, -9.18 106.42 07/22/2015 17:30:42 -78.97, -9.10 106.47 1.83 36
9 07/25/2015 08:57:11 78.63, -62.76 74.58 07/25/2015 08:56:58 78.63, -62.81 74.60 0.98 13




NCC Satellite Simultaneous Nadir Overpasses (SNOs) Prediction Service
